Potton, United Kingdom
Current Conditions -  °F | °C
As of 4:20 PM on Thursday 23 Oct 2014 (Local Time) from EGTC Reporting Station
Broken Clouds Broken Clouds  
Wind Chill: 59°   Ceiling: 2000
Heat Index: 59°   Visibility: 6mi
Dew Point: 57°   Wind: 16mph
Humidity: 94%   Direction: 200°SSW
Pressure: 30"   Gusts: NA
Location:  52.13°N, 0.22°W
Report Text: EGTC 231520Z 20014KT 9999 FEW018 BKN020 15/14 Q1016
Loading
Personal Weather Stations






























Interactive Weather Map
Tropical Storm Tracking
New forecast layout! Learn more

10-Day Weather Forecast

Advertisements
Track Severe Weather on mobile